{"data":{"norad_id":58080,"intl_designator":"2023-160F","name":"STARLINK-30603","alt_names":[],"object_type":"PAYLOAD","status":"ACTIVE","operator":null,"country":"US","launch_date":"2023-10-18","launch_site_code":"AFETR","launch_vehicle":null,"mission":null,"orbit_class":"UNKNOWN","rcs_meters":null,"size_class":null,"mass_kg":null,"dimensions":null,"purposes":["comms"],"wikipedia_slug":null,"has_3d_model":false,"image_url":null,"decayed_at":null,"tle_current":{"epoch":"2026-05-24T23:35:09.165408Z","epoch_age_seconds":87242,"freshness":"FRESH","line1":"1 58080U 23160F   26144.98274497  .00001679  00000+0  70489-4 0  9994","line2":"2 58080  43.0041   7.0433 0001360 273.8807  86.1889 15.27589349144616","mean_motion":15.27589349,"eccentricity":0.000136,"inclination_deg":43.0041,"raan_deg":7.0433,"arg_perigee_deg":273.8807,"mean_anomaly_deg":86.1889,"bstar":7.0489e-5,"rev_number":14461,"period_min":94.266171791697,"perigee_km":482.08798441128,"apogee_km":483.954219415,"semimajor_km":6861.1581019131,"source":"CELESTRAK","updated_at":"2026-05-25T13:38:18.521661Z"}}}